SPACEMOBILE-004

Last updated on Sat Aug 15 2026 00:02:08 GMT+0000 (Coordinated Universal Time)

1 61049U 24163E 26225.73786682 .00008544 00000+0 39988-3 0 9990 2 61049 52.9739 44.3062 0006086 327.2665 32.7951 15.20526923106523
UTC large
Height (km)
Speed (km/s)
/
Latitude / Longitude
Inclination (degrees)
Orbital Period (minutes)
Azimuth
Elevation
Range (km)
Doppler Factor

Next 0 passes for location: London (51.5072 / 0.1276)

No passes found over London.
SPACEMOBILE-004